This is the latest recevied weather packets stored in our database for station/object KE8GJZ-2. If no packets are shown the sender has not sent any weather packets the latest 10 day(s).
| Time | Temp. | Humidity | Pressure | Rain* | Wind** | Luminosity | Snow |
|---|---|---|---|---|---|---|---|
| 1778173228 | 8.89° C | 56% | 1014.1 hPa | 0 mm | - | 374 W/m² | - |
| 1778172924 | 8.89° C | 55% | 1014.2 hPa | 0 mm | - | 407 W/m² | - |
| 1778172621 | 8.33° C | 56% | 1014.3 hPa | 0 mm | - | 188 W/m² | - |
| 1778172317 | 8.33° C | 55% | 1014.6 hPa | 0 mm | - | 275 W/m² | - |
| 1778172014 | 8.33° C | 60% | 1014.9 hPa | 0 mm | - | 212 W/m² | - |
| 1778171711 | 8.89° C | 56% | 1014.8 hPa | 0 mm | - | 363 W/m² | - |
| 1778171409 | 8.33° C | 55% | 1014.8 hPa | 0 mm | - | 741 W/m² | - |
| 1778171103 | 8.33° C | 55% | 1015.2 hPa | 0 mm | - | 209 W/m² | - |
| 1778170801 | 8.89° C | 53% | 1015 hPa | 0 mm | - | 796 W/m² | - |
| 1778170497 | 8.33° C | 56% | 1015.1 hPa | 0 mm | - | 753 W/m² | - |
| 1778170194 | 8.89° C | 53% | 1014.9 hPa | 0 mm | - | 336 W/m² | - |
| 1778169890 | 8.89° C | 56% | 1015.1 hPa | 0 mm | - | 763 W/m² | - |
| 1778169585 | 8.89° C | 54% | 1015 hPa | 0 mm | - | 476 W/m² | - |
| 1778169282 | 8.89° C | 54% | 1015.1 hPa | 0 mm | - | 672 W/m² | - |
| 1778168979 | 8.89° C | 55% | 1015 hPa | 0 mm | - | 311 W/m² | - |
| 1778168675 | 8.89° C | 55% | 1015.2 hPa | 0 mm | - | 371 W/m² | - |
| 1778168373 | 8.89° C | 56% | 1015.1 hPa | 0 mm | - | 429 W/m² | - |
| 1778168069 | 8.89° C | 54% | 1015 hPa | 0 mm | - | 348 W/m² | - |
| 1778167766 | 8.89° C | 54% | 1014.9 hPa | 0 mm | - | 411 W/m² | - |
| 1778167462 | 8.89° C | 55% | 1014.8 hPa | 0 mm | - | 414 W/m² | - |
| 1778167158 | 9.44° C | 56% | 1014.7 hPa | 0 mm | - | 265 W/m² | - |
| 1778166855 | 8.89° C | 54% | 1014.8 hPa | 0 mm | - | 911 W/m² | - |
| 1778166552 | 8.89° C | 56% | 1014.6 hPa | 0 mm | - | 622 W/m² | - |
| 1778166248 | 8.89° C | 56% | 1014.7 hPa | 0 mm | - | 727 W/m² | - |
| 1778165945 | 8.89° C | 57% | 1014.8 hPa | 0 mm | - | 732 W/m² | - |
* Rain latest hour (hover to see other rain measurements)
** Current wind speed in m/s (hover to see current wind gust speed)